Location: Peebles
(55.6412°N, 3.1714°W)
Time: 21:02:00
(UTC+00:00)

deb Agena D - Pass Details

Date: 26 September 2023
Orbit: 794 x 979 km, 99.8° (Epoch: 28 November)

Event Time Altitude Azimuth Distance (km) Brightness Sun altitude
Rises 02:47:06 0° 17° (NNE) 3,696 10.6 -31.6°
Reaches altitude 10° 02:49:44 10° 9° (N) 2,745 9.6 -31.4°
Enters shadow 02:55:08 38° 309° (NW) 1,463 7.4 -31.0°
